[[{"header":{"parameterUnit":"m.s-1","parameterCategory":1,"la1":30.2991,"la2":30.254,"lo1":-89.0895,"lo2":-89.0444,"dy":0.0017,"dx":0.0017,"nx":28,"ny":28,"refTime":"2025-06-11T03:00:00:Z","depth":0,"parameterNumber":2,"parameterNumberName":"U-component_of_WINDS"},"data":[0,0,0,0,0,0,0,0,0,0,0,0,0,0,0,0,0,0,0,0,0,0,0,0,0,0,0,0,0,0,0,0,0,0,0,0,0,0,0,0,0,0,0,0,0,0,0,0,0,0,0,0,0,0,0,0,0,0,-2.4318,-2.4317,0,-2.4273,-2.4273,-2.4272,-2.419,-2.4188,-2.4187,-2.4185,-2.4141,-2.4141,-2.4141,0,0,0,0,0,0,0,0,0,0,0,0,0,-2.4334,-2.4335,-2.4318,-2.4317,-2.4317,-2.4273,-2.4273,-2.4272,-2.419,-2.4188,-2.4186,-2.4185,-2.4141,-2.4141,-2.4141,0,0,0,0,0,0,0,0,0,0,0,0,0,-2.4312,-2.4335,-2.4318,-2.4271,-2.4266,-2.4274,-2.4273,-2.4272,-2.4191,-2.4188,-2.4186,-2.4184,-2.4141,-2.4141,-2.4141,-2.4192,0,0,-2.4143,-2.4143,0,0,0,0,0,0,0,0,-2.4314,-2.4312,-2.4278,-2.4274,-2.4269,-2.4235,-2.4262,-2.4245,-2.4191,-2.4219,-2.4185,-2.4183,-2.4174,-2.4172,-2.4169,-2.419,-2.4188,-2.4143,-2.4143,-2.4143,-2.4143,0,0,0,0,0,0,0,-2.4315,-2.4313,-2.43,-2.4278,-2.4272,-2.4253,-2.4247,-2.4259,-2.4211,-2.4217,-2.4211,-2.4206,-2.4171,-2.4168,-2.4167,-2.4187,-2.4143,-2.4143,-2.4144,-2.4144,-2.425,-2.4252,0,0,0,0,0,0,-2.4324,-2.4315,-2.4302,-2.4299,-2.4286,-2.4254,-2.4248,-2.4248,-2.421,-2.4202,-2.4209,-2.4203,-2.4169,-2.4166,-2.4165,-2.4222,-2.4143,-2.4144,-2.4144,-2.4247,-2.425,-2.4253,0,0,0,0,0,0,-2.4324,-2.4323,-2.4303,-2.4305,-2.4301,-2.4256,-2.4258,-2.4248,-2.4245,-2.4204,-2.4195,-2.4214,-2.4167,-2.4164,-2.4186,-2.4219,-2.4144,-2.4144,-2.4244,-2.4248,-2.4252,-2.4337,0,0,0,0,0,0,-2.4325,-2.4324,-2.4342,-2.4306,-2.4302,-2.4325,-2.426,-2.4249,-2.4246,-2.4238,-2.4207,-2.42,-2.4165,-2.4186,-2.4187,-2.4219,-2.4145,-2.4241,-2.4246,-2.425,-2.4331,-2.4343,-2.4353,0,0,0,0,0,-2.4326,-2.4367,-2.4343,-2.4342,-2.4323,-2.4327,-2.4324,-2.4283,-2.4249,-2.4268,-2.4241,-2.4201,-2.4216,-2.4189,-2.4189,-2.4222,-2.4239,-2.4244,-2.425,-2.4326,-2.4341,-2.4353,0,0,0,0,0,0,-2.4407,-2.4362,-2.4334,-2.4365,-2.4351,-2.4313,-2.4334,-2.43,-2.4294,-2.4287,-2.4236,-2.423,-2.4259,-2.4242,-2.4213,-2.4269,-2.4221,-2.4227,-2.4279,-2.4292,-2.4304,-2.4307,-2.4145,0,0,0,0,0,-2.4429,-2.4436,-2.4395,-2.4427,-2.4421,-2.4379,-2.4379,-2.4349,-2.4332,-2.4325,-2.43,-2.4286,-2.4287,-2.4289,-2.4288,-2.4329,-2.4321,-2.4351,-2.4363,-2.4372,-2.4378,-2.4399,-2.4413,-2.4272,-2.4272,-2.4272,0,0,-2.4474,-2.445,-2.4457,-2.4443,-2.4428,-2.4436,-2.4374,-2.4386,-2.4392,-2.4327,-2.4346,-2.4328,-2.4308,-2.434,-2.4353,-2.4327,-2.4416,-2.438,-2.4388,-2.4388,-2.4407,-2.442,-2.4432,-2.4276,-2.4275,-2.4274,0,0,-2.4559,-2.4542,-2.4566,-2.4553,-2.4531,-2.4503,-2.451,-2.4478,-2.4463,-2.4482,-2.4434,-2.4441,-2.4444,-2.4433,-2.4427,-2.4512,-2.4474,-2.4513,-2.4572,-2.4594,-2.4605,-2.4614,-2.4645,-2.4656,-2.4519,-2.4519,-2.4519,0,-2.4617,-2.4627,-2.4583,-2.4598,-2.4594,-2.4536,-2.4561,-2.4551,-2.453,-2.4529,-2.4501,-2.4506,-2.4488,-2.4517,-2.4538,-2.4536,-2.4542,-2.4515,-2.4607,-2.4616,-2.4624,-2.4653,-2.4664,-2.4524,-2.4523,-2.4523,-2.4522,0,-2.47,-2.4709,-2.4731,-2.4713,-2.4712,-2.4732,-2.4692,-2.4696,-2.4667,-2.4643,-2.4663,-2.4641,-2.4635,-2.464,-2.4611,-2.4665,-2.465,-2.4616,-2.4566,-2.4643,-2.4669,-2.468,-2.4531,-2.4529,-2.4528,-2.4526,0,0,-2.4833,-2.4792,-2.4801,-2.4793,-2.4766,-2.4772,-2.4791,-2.4785,-2.479,-2.4779,-2.4793,-2.4799,-2.4767,-2.4761,-2.4731,-2.475,-2.482,-2.4713,-2.4712,-2.4733,-2.4879,-2.4905,-2.4918,-2.4796,-2.4797,-2.4799,-2.4881,0,-2.4913,-2.4941,-2.4903,-2.494,-2.4947,-2.4894,-2.4911,-2.4897,-2.4876,-2.488,-2.4856,-2.4861,-2.4819,-2.4815,-2.4832,-2.4808,-2.4848,-2.4801,-2.4809,-2.481,-2.4815,-2.4932,-2.4959,-2.5037,-2.489,-2.4892,-2.4893,0,-2.5008,-2.5002,-2.504,-2.5012,-2.5014,-2.5029,-2.5022,-2.5026,-2.501,-2.4994,-2.4989,-2.4953,-2.4971,-2.4924,-2.4948,-2.4917,-2.4918,-2.4907,-2.4909,-2.4908,-2.4856,-2.4933,-2.506,-2.5072,-2.4909,-2.4908,-2.4907,0,-2.5102,-2.5103,-2.5126,-2.512,-2.5089,-2.5101,-2.5089,-2.507,-2.507,-2.5064,-2.5064,-2.5061,-2.5059,-2.5058,-2.5023,-2.4992,-2.5052,-2.5001,-2.5039,-2.504,-2.5052,-2.5052,-2.5182,-2.5055,-2.5055,-2.5054,-2.5054,0,-2.5194,-2.5219,-2.5167,-2.5182,-2.5209,-2.5166,-2.5195,-2.5177,-2.5162,-2.5172,-2.5127,-2.5138,-2.5092,-2.5098,-2.5072,-2.5096,-2.5096,-2.5083,-2.5076,-2.5087,-2.5089,-2.5086,-2.508,-2.5058,-2.5057,-2.5056,-2.5056,0,-2.5302,-2.5268,-2.529,-2.5259,-2.5252,-2.5274,-2.5248,-2.526,-2.5237,-2.5251,-2.5252,-2.5216,-2.5222,-2.5187,-2.5187,-2.5169,-2.5206,-2.519,-2.5212,-2.5206,-2.5246,-2.5243,-2.5378,-2.5394,-2.5258,-2.5259,-2.526,0,-2.5362,-2.5381,-2.5352,-2.5356,-2.5346,-2.5352,-2.5352,-2.5312,-2.5314,-2.5298,-2.5313,-2.5315,-2.5314,-2.5326,-2.53,-2.53,-2.5283,-2.5331,-2.5283,-2.5294,-2.5284,-2.5283,-2.5285,-2.5341,-2.5342,-2.5344,-2.5345,0,-2.5473,-2.5456,-2.5457,-2.5454,-2.5455,-2.545,-2.5442,-2.5448,-2.5405,-2.5409,-2.5415,-2.5414,-2.5415,-2.5418,-2.5413,-2.5401,-2.5366,-2.5361,-2.5369,-2.538,-2.5392,-2.5386,-2.5239,-2.5357,-2.5356,-2.5355,-2.5354,-2.5354,-2.5559,-2.5573,-2.5556,-2.5559,-2.555,-2.5544,-2.5554,-2.5533,-2.5537,-2.5533,-2.551,-2.552,-2.5506,-2.5496,-2.5487,-2.5496,-2.5473,-2.5485,-2.5488,-2.5492,-2.5499,-2.5392,-2.5495,-2.5494,-2.5494,-2.5493,-2.5493,0,-2.5668,-2.5654,-2.5658,-2.5649,-2.5652,-2.562,-2.561,-2.5615,-2.5625,-2.5614,-2.5615,-2.5622,-2.5625,-2.5601,-2.5601,-2.5613,-2.5597,-2.5614,-2.5612,-2.561,-2.5519,-2.5512,-2.5627,-2.5627,-2.5627,-2.5627,-2.5627,-2.5627,-2.5725,-2.5747,-2.5729,-2.5747,-2.5734,-2.5743,-2.5741,-2.5736,-2.5727,-2.5737,-2.574,-2.5724,-2.5708,-2.5707,-2.5709,-2.5702,-2.5705,-2.5727,-2.5715,-2.563,-2.5617,-2.5604,-2.5597,-2.5728,-2.5728,-2.5805,-2.5806,-2.5807]},{"header":{"parameterUnit":"m.s-1","parameterCategory":1,"la1":30.2991,"la2":30.254,"lo1":-89.0895,"lo2":-89.0444,"dy":0.0017,"dx":0.0017,"nx":28,"ny":28,"refTime":"2025-06-11T03:00:00:Z","depth":0,"parameterNumber":3,"parameterNumberName":"V-component_of_WINDS"},"data":[0,0,0,0,0,0,0,0,0,0,0,0,0,0,0,0,0,0,0,0,0,0,0,0,0,0,0,0,0,0,0,0,0,0,0,0,0,0,0,0,0,0,0,0,0,0,0,0,0,0,0,0,0,0,0,0,0,0,3.9265,3.9265,0,3.9245,3.9244,3.9244,3.9247,3.9247,3.9248,3.9248,3.9223,3.9222,3.9221,0,0,0,0,0,0,0,0,0,0,0,0,0,3.9305,3.9304,3.9265,3.9265,3.9265,3.9245,3.9244,3.9244,3.9247,3.9247,3.9248,3.9248,3.9223,3.9222,3.9221,0,0,0,0,0,0,0,0,0,0,0,0,0,3.9286,3.9304,3.9265,3.9264,3.9264,3.9245,3.9244,3.9244,3.9247,3.9247,3.9248,3.9248,3.9224,3.9222,3.9221,3.9201,0,0,3.9216,3.9216,0,0,0,0,0,0,0,0,3.9287,3.9285,3.9264,3.9264,3.9264,3.9249,3.9249,3.9229,3.9247,3.9253,3.9248,3.9249,3.9231,3.9229,3.9224,3.92,3.9199,3.9216,3.9215,3.9215,3.9214,0,0,0,0,0,0,0,3.9288,3.9286,3.9257,3.9264,3.9264,3.9263,3.9261,3.9245,3.9239,3.9253,3.9253,3.925,3.9231,3.9225,3.9223,3.9198,3.9216,3.9215,3.9214,3.9213,3.9157,3.9157,0,0,0,0,0,0,3.9291,3.9287,3.9258,3.9256,3.9277,3.9262,3.926,3.9253,3.9239,3.9238,3.925,3.9251,3.9228,3.9225,3.9222,3.9198,3.9215,3.9213,3.9212,3.9158,3.9157,3.9156,0,0,0,0,0,0,3.9291,3.9288,3.9259,3.9272,3.9268,3.9261,3.9253,3.9252,3.9247,3.9238,3.9236,3.9246,3.9228,3.9224,3.9207,3.9197,3.9213,3.9211,3.9159,3.9158,3.9157,3.915,0,0,0,0,0,0,3.9293,3.9288,3.9281,3.9271,3.9267,3.9244,3.9253,3.9252,3.9245,3.9245,3.9233,3.9231,3.9228,3.9209,3.9205,3.9196,3.921,3.9159,3.9158,3.9157,3.9151,3.9149,3.9147,0,0,0,0,0,3.9294,3.9279,3.9281,3.9277,3.9258,3.9243,3.9241,3.9238,3.9244,3.9236,3.9231,3.9232,3.9199,3.9207,3.9203,3.9193,3.916,3.9158,3.9157,3.9152,3.9149,3.9147,0,0,0,0,0,0,3.9287,3.9278,3.928,3.9262,3.9253,3.9244,3.9234,3.9236,3.9225,3.9226,3.9222,3.9219,3.9201,3.9195,3.9204,3.9173,3.918,3.9178,3.9178,3.9175,3.9173,3.9175,3.9209,0,0,0,0,0,3.9283,3.9273,3.9265,3.925,3.9246,3.9241,3.9234,3.9233,3.9224,3.922,3.9213,3.9203,3.9191,3.9183,3.9171,3.915,3.9148,3.9141,3.914,3.9138,3.9136,3.9125,3.9122,3.9152,3.9152,3.9152,0,0,3.9275,3.9269,3.9263,3.9248,3.9242,3.9231,3.9238,3.9225,3.9217,3.9218,3.9201,3.9196,3.9184,3.9165,3.9156,3.916,3.9127,3.9136,3.9135,3.9134,3.9123,3.912,3.9118,3.9151,3.9151,3.9151,0,0,3.9255,3.925,3.9237,3.9231,3.9222,3.9218,3.9215,3.9206,3.9203,3.9186,3.9187,3.9176,3.9155,3.9147,3.914,3.9118,3.9119,3.9115,3.9105,3.9094,3.9091,3.9089,3.9081,3.9079,3.9113,3.9113,3.9113,0,3.9246,3.923,3.923,3.9217,3.9211,3.9213,3.92,3.9193,3.918,3.9175,3.9179,3.9153,3.9146,3.9125,3.912,3.9114,3.911,3.9116,3.9092,3.909,3.9088,3.908,3.9077,3.9112,3.9112,3.9112,3.9112,0,3.922,3.9209,3.9199,3.9188,3.918,3.9167,3.9164,3.9156,3.9156,3.9152,3.9135,3.9127,3.9113,3.9108,3.9107,3.9087,3.909,3.9093,3.91,3.9085,3.9077,3.9075,3.9111,3.9112,3.9112,3.9112,0,0,3.9194,3.9184,3.918,3.9175,3.9166,3.9156,3.9143,3.9132,3.9125,3.9116,3.9105,3.9087,3.9091,3.9083,3.9081,3.9072,3.9055,3.9076,3.9076,3.9072,3.9033,3.903,3.9027,3.9056,3.9055,3.9055,3.9033,0,3.9173,3.9151,3.9151,3.913,3.912,3.9123,3.9111,3.9104,3.91,3.909,3.9085,3.9073,3.9078,3.9074,3.9065,3.9059,3.9047,3.9061,3.9044,3.9044,3.9047,3.9023,3.902,3.9,3.9031,3.903,3.903,0,3.9145,3.9137,3.9116,3.9109,3.9105,3.9094,3.9084,3.9075,3.9066,3.9064,3.9056,3.9056,3.9042,3.905,3.903,3.904,3.9033,3.9029,3.9028,3.9026,3.9036,3.902,3.8994,3.8991,3.9025,3.9026,3.9026,0,3.9128,3.9112,3.9098,3.9093,3.9084,3.9077,3.9073,3.9065,3.9058,3.9049,3.9044,3.9033,3.9026,3.9017,3.9014,3.902,3.8994,3.9002,3.8991,3.8991,3.8985,3.8986,3.8958,3.8981,3.8982,3.8982,3.8982,0,3.9105,3.9092,3.909,3.9081,3.9067,3.9066,3.9051,3.9047,3.904,3.903,3.9031,3.9021,3.9018,3.9007,3.9004,3.8988,3.8985,3.8983,3.8982,3.8982,3.8983,3.8978,3.8979,3.8981,3.8981,3.8981,3.8981,0,3.9083,3.9082,3.9066,3.9059,3.9057,3.9047,3.9041,3.9032,3.9029,3.9016,3.9013,3.9008,3.8995,3.8991,3.8976,3.8974,3.8955,3.8956,3.8959,3.8958,3.8948,3.8949,3.8915,3.8911,3.8938,3.8938,3.8938,0,3.9068,3.9059,3.9052,3.9046,3.9041,3.9031,3.9025,3.9024,3.9017,3.9007,3.8999,3.8987,3.8977,3.8957,3.8951,3.894,3.894,3.8929,3.8938,3.8939,3.8939,3.894,3.8939,3.8927,3.8927,3.8926,3.8926,0,3.9042,3.9042,3.9033,3.9024,3.9017,3.9009,3.9002,3.8997,3.8994,3.8986,3.8975,3.8967,3.8952,3.894,3.8929,3.8923,3.8924,3.8924,3.8921,3.8921,3.8923,3.8921,3.8954,3.8924,3.8924,3.8925,3.8925,3.8925,3.9023,3.9015,3.9009,3.8999,3.8994,3.8988,3.8979,3.8976,3.8966,3.8955,3.8954,3.8941,3.8933,3.8918,3.8912,3.8901,3.8904,3.89,3.8898,3.8897,3.8897,3.8925,3.8899,3.8899,3.8899,3.8899,3.8899,0,3.8997,3.8994,3.8985,3.8975,3.8968,3.8971,3.8963,3.8956,3.8945,3.8938,3.8929,3.8915,3.8904,3.8898,3.8886,3.8879,3.8879,3.8876,3.8876,3.8875,3.8895,3.8898,3.8876,3.8876,3.8876,3.8876,3.8876,3.8876,3.8983,3.8969,3.8968,3.8952,3.8948,3.8937,3.8932,3.8926,3.892,3.8905,3.8896,3.8893,3.8886,3.8874,3.8864,3.8862,3.8858,3.8854,3.8853,3.8871,3.8873,3.8876,3.8879,3.8853,3.8853,3.8834,3.8834,3.8834]}]]